Flag for Canada Weather past 2 weeks in Paradise, Newfoundland and Labrador, Canada

Now
68 °F

Partly sunny.


Feels Like: 68 °F
Forecast: 61 / 74 °F
Wind: 2 mph from North

Location: St. John's

Current Time: Jul 26, 2014 at 5:15:10 PM

Latest Report: Jul 26, 2014 at 4:30 PM


Visibility: 15 mi

Pressure: 29.88 "Hg

Humidity: 94%

Dew point: 66 °F

Location of ParadiseLocation

Historic Weather in Paradise — Graph

°F

Paradise temperature yesterday

Maximum temperature yesterday: 77 °F (at 3:30 PM)
Minimum temperature yesterday: 63 °F (at 8:30 AM)
Average temperature yesterday: 69 °F

Past Weeks' High & Low Weather Summary

 TemperatureHumidityPressure
High84 °F (Jul 21, 2:30 PM)100% (Jul 12, 12:30 AM)30.26 "Hg (Jul 12, 12:30 AM)
Low48 °F (Jul 20, 1:30 AM)27% (Jul 21, 3:30 PM)29.66 "Hg (Jul 26, 2:30 AM)
Average67 °F76%30.00 "Hg
* Reported Jul 11 3:30 PM — Jul 26 3:30 PM, Paradise, Weather by CustomWeather, © 2014

Note: Actual official high and low records may vary slightly from our data, if they occured in-between our weather recording intervals... More about our weather records

Advertising

Paradise weather history for previous 24 hours

 ConditionsComfort  
Time TempWeatherWind HumidityBarometerVisibility
3:30 PM
Jul 26
64 °FDrizzle. Low clouds.2 mph100%29.88 "Hg8 mi
3:17 PM64 °FDrizzle. Low clouds.2 mph100%29.87 "Hg8 mi
2:30 PM64 °FSprinkles. Fog.7 mph94%29.87 "Hg3 mi
1:30 PM63 °FDrizzle. Fog.7 mph100%29.85 "Hg0 mi
12:30 PM61 °FSprinkles. Fog.7 mph100%29.83 "Hg0 mi
11:30 AM68 °FSprinkles. Low clouds.8 mph94%29.82 "Hg8 mi
10:30 AM68 °FMostly cloudy.3 mph94%29.80 "Hg15 mi
9:30 AM66 °FMostly cloudy.5 mph100%29.79 "Hg12 mi
8:30 AM64 °FFog.7 mph100%29.77 "Hg5 mi
7:30 AM64 °FDrizzle. Fog.7 mph100%29.76 "Hg0 mi
6:30 AM64 °FMostly cloudy.3 mph100%29.71 "Hg15 mi
5:30 AM64 °FLow clouds.7 mph100%29.70 "Hg15 mi
4:30 AM64 °FSprinkles. Mostly cloudy.8 mph100%29.68 "Hg15 mi
3:30 AM64 °FSprinkles. Low clouds.13 mph100%29.66 "Hg15 mi
2:30 AM66 °FSprinkles. Overcast.10 mph94%29.66 "Hg4 mi
1:30 AM68 °FSprinkles. Low clouds.14 mph100%29.67 "Hg12 mi
12:30 AM68 °FSprinkles. Low clouds.14 mph100%29.70 "Hg15 mi
11:30 PM
Jul 25
66 °FSprinkles. Fog.16 mph100%29.73 "Hg6 mi
10:30 PM68 °FSprinkles. Low clouds.13 mph94%29.75 "Hg15 mi
9:30 PM70 °FPartly cloudy.12 mph94%29.76 "Hg15 mi
8:30 PM70 °FPartly sunny.12 mph94%29.77 "Hg15 mi
7:30 PM72 °FPartly sunny.12 mph88%29.78 "Hg15 mi
6:30 PM73 °FMostly cloudy.14 mph89%29.78 "Hg15 mi
5:30 PM73 °FPartly sunny.16 mph89%29.78 "Hg15 mi
Weather by CustomWeather, © 2014

See weather overviewHow to use our weather pages